Starlink 1202

operational
NORAD ID: 45183 Int'l Des: 2020-012 Owner: SPXS Country: US Constellation: starlink
LEOCIRCULARSTARLINK_TYPE

About Starlink 1202

Description loading...

Live Position

Loading 3D Globe...

Upcoming Passes

Altitude History

Altitude vs Time

uPlot chart will show altitude changes over time

Two-Line Element Set

1 45183U 20012F 25258.75003973 .00023290 00000-0 15823-2 0 9999
2 45183 53.0547 111.9547 0000974 160.6645 199.4381 15.06281151308470
Epoch: Sep 15, 2025 • Age: 15 hours

Current Status

Altitude 553.4 km
Velocity 7.59 km/s
Sub-Earth Point -22.46°S, 172.72°E
Launch Date Feb 17, 2020
Age 5.5 years
Type internet

Technical Details

Classification Payload
Mass 260.00 kg
Dry Mass 248.00 kg
Total Mass 260.00 kg
Length 0.20 m
Diameter 2.80 m
Span 9.00 m
Shape Box + pan
Manufacturer SPXS
Bus Type Starlink
Phase Status In Orbit
Owner/State SPXS/US

Large Constellations

Loading constellations...